Location: Allen Lane School
(37.8198°N, 89.7382°W)
Time: 20:18:54
(UTC+00:00)

Meteor 1-27 Rocket - Pass Details

Date: 08 December 2021
Orbit: 831 x 908 km, 81.3° (Epoch: 17 January)

Event Time Altitude Azimuth Distance (km) Brightness Sun altitude
Rises 12:13:36 0° 342° (NNW) 3,439 6.5 -9.5°
Reaches altitude 10° 12:16:09 10° 334° (NNW) 2,510 5.7 -9.1°
Maximum altitude 12:21:22 38° 268° (W) 1,302 4.3 -8.1°
Drops below altitude 10° 12:26:40 10° 202° (SSW) 2,543 6.2 -7.1°
Sets 12:29:16 0° 194° (SSW) 3,489 7.0 -6.7°
